| time (UTC) | temp F | wind direction | speed MPH | gust MPH | rain 1hr in | rain 24hr in | rain mn in | humidity % | barometer mb |
| 20260504231550 | 73 | 222 | 8.0 | 19.0 | 0.00 | 0.01 | 0.01 | 46 | 1004.6 |
| 20260504231020 | 73 | 203 | 8.0 | 21.0 | 0.00 | 0.01 | 0.01 | 46 | 1004.7 |
| 20260504230521 | 73 | 238 | 7.0 | 21.0 | 0.00 | 0.01 | 0.01 | 45 | 1004.6 |
| 20260504230039 | 73 | 221 | 7.0 | 18.0 | 0.00 | 0.01 | 0.01 | 45 | 1004.8 |
| 20260504225525 | 73 | 209 | 7.0 | 20.0 | 0.00 | 0.01 | 0.01 | 50 | 1004.8 |
| 20260504225020 | 73 | 219 | 7.0 | 20.0 | 0.00 | 0.01 | 0.01 | 45 | 1004.9 |
| 20260504224538 | 73 | 219 | 7.0 | 15.0 | 0.00 | 0.01 | 0.01 | 45 | 1005.0 |
| 20260504224020 | 73 | 150 | 6.0 | 15.0 | 0.00 | 0.01 | 0.01 | 46 | 1005.0 |
| 20260504223520 | 73 | 226 | 4.0 | 13.0 | 0.00 | 0.01 | 0.01 | 49 | 1005.0 |
| 20260504223041 | 73 | 261 | 4.0 | 13.0 | 0.00 | 0.01 | 0.01 | 50 | 1005.0 |
| 20260504222520 | 72 | 236 | 5.0 | 13.0 | 0.00 | 0.01 | 0.01 | 56 | 1005.0 |
| 20260504222021 | 72 | 205 | 6.0 | 11.0 | 0.00 | 0.01 | 0.01 | 51 | 1005.1 |
| 20260504221539 | 72 | 194 | 6.0 | 16.0 | 0.00 | 0.01 | 0.01 | 51 | 1005.1 |
| 20260504221022 | 72 | 163 | 7.0 | 16.0 | 0.00 | 0.01 | 0.01 | 51 | 1005.3 |
| 20260504220521 | 72 | 180 | 6.0 | 13.0 | 0.00 | 0.01 | 0.01 | 52 | 1005.3 |
| 20260504220040 | 72 | 161 | 6.0 | 18.0 | 0.00 | 0.01 | 0.01 | 51 | 1005.4 |
| 20260504215522 | 72 | 132 | 7.0 | 18.0 | 0.00 | 0.01 | 0.01 | 50 | 1005.3 |
| 20260504215020 | 73 | 161 | 5.0 | 14.0 | 0.00 | 0.01 | 0.01 | 55 | 1005.3 |
| 20260504214541 | 73 | 190 | 6.0 | 14.0 | 0.00 | 0.01 | 0.01 | 49 | 1005.4 |
| 20260504214022 | 73 | 198 | 5.0 | 12.0 | 0.00 | 0.01 | 0.01 | 49 | 1005.3 |
| 20260504213524 | 73 | 215 | 5.0 | 12.0 | 0.00 | 0.01 | 0.01 | 49 | 1005.4 |
| 20260504213035 | 73 | 215 | 4.0 | 11.0 | 0.00 | 0.01 | 0.01 | 49 | 1005.4 |
| 20260504212520 | 72 | 188 | 4.0 | 11.0 | 0.00 | 0.01 | 0.01 | 50 | 1005.5 |
| 20260504212020 | 72 | 160 | 4.0 | 11.0 | 0.00 | 0.01 | 0.01 | 53 | 1005.6 |
| 20260504211533 | 71 | 192 | 4.0 | 11.0 | 0.00 | 0.01 | 0.01 | 59 | 1005.6 |
| 20260504211021 | 70 | 188 | 3.0 | 12.0 | 0.00 | 0.01 | 0.01 | 58 | 1005.6 |
| 20260504210522 | 69 | 175 | 4.0 | 13.0 | 0.00 | 0.01 | 0.01 | 57 | 1005.7 |
| 20260504210052 | 69 | 188 | 5.0 | 13.0 | 0.00 | 0.01 | 0.01 | 57 | 1005.6 |
| 20260504205524 | 69 | 174 | 5.0 | 11.0 | 0.00 | 0.01 | 0.01 | 56 | 1005.5 |
| 20260504205019 | 69 | 196 | 5.0 | 9.0 | 0.00 | 0.01 | 0.01 | 58 | 1006.4 |
| 20260504204618 | 68 | 240 | 2.0 | 8.0 | 0.00 | 0.01 | 0.01 | 61 | 1006.4 |
| 20260504204021 | 68 | 194 | 2.0 | 8.0 | 0.00 | 0.01 | 0.01 | 66 | 1006.4 |
| 20260504203520 | 67 | 238 | 4.0 | 16.0 | 0.00 | 0.01 | 0.01 | 62 | 1006.9 |
| 20260504203038 | 67 | 225 | 5.0 | 16.0 | 0.00 | 0.01 | 0.01 | 63 | 1006.9 |
| 20260504202521 | 66 | 232 | 6.0 | 16.0 | 0.00 | 0.01 | 0.01 | 62 | 1006.8 |
| 20260504202021 | 66 | 230 | 4.0 | 11.0 | 0.01 | 0.01 | 0.01 | 65 | 1006.8 |
| 20260504201538 | 66 | 159 | 4.0 | 13.0 | 0.01 | 0.01 | 0.01 | 65 | 1006.8 |
| 20260504201020 | 66 | 211 | 5.0 | 13.0 | 0.01 | 0.01 | 0.01 | 66 | 1006.8 |
| 20260504200520 | 65 | 196 | 2.0 | 14.0 | 0.01 | 0.01 | 0.01 | 73 | 1006.8 |
| 20260504200039 | 65 | 207 | 4.0 | 14.0 | 0.01 | 0.01 | 0.01 | 68 | 1006.9 |
| 20260504195521 | 64 | 219 | 5.0 | 14.0 | 0.01 | 0.01 | 0.01 | 70 | 1006.9 |
| 20260504195020 | 64 | 215 | 4.0 | 11.0 | 0.01 | 0.01 | 0.01 | 72 | 1006.9 |
| 20260504194548 | 63 | 200 | 3.0 | 9.0 | 0.01 | 0.01 | 0.01 | 73 | 1007.0 |
| 20260504194025 | 63 | 227 | 3.0 | 9.0 | 0.01 | 0.01 | 0.01 | 72 | 1007.1 |
| 20260504193522 | 62 | 232 | 4.0 | 9.0 | 0.01 | 0.01 | 0.01 | 73 | 1007.1 |
| 20260504193039 | 63 | 225 | 4.0 | 9.0 | 0.01 | 0.01 | 0.01 | 78 | 1007.1 |
| 20260504192524 | 63 | 290 | 0.0 | 13.0 | 0.01 | 0.01 | 0.01 | 72 | 1006.6 |
| 20260504192021 | 64 | 296 | 7.0 | 15.0 | 0.00 | 0.00 | 0.00 | 70 | 1007.5 |
| 20260504191540 | 64 | 254 | 6.0 | 16.0 | 0.00 | 0.00 | 0.00 | 69 | 1008.1 |
| 20260504191017 | 65 | 263 | 10.0 | 18.0 | 0.00 | 0.00 | 0.00 | 67 | 1007.8 |
| 20260504190517 | 66 | 245 | 11.0 | 26.0 | 0.00 | 0.00 | 0.00 | 66 | 1007.9 |
| 20260504190045 | 67 | 234 | 9.0 | 26.0 | 0.00 | 0.00 | 0.00 | 64 | 1007.4 |
| 20260504185521 | 67 | 236 | 11.0 | 26.0 | 0.00 | 0.00 | 0.00 | 65 | 1007.7 |
| 20260504185018 | 68 | 201 | 7.0 | 13.0 | 0.00 | 0.00 | 0.00 | 62 | 1007.7 |
| 20260504184537 | 67 | 224 | 6.0 | 16.0 | 0.00 | 0.00 | 0.00 | 63 | 1007.7 |
| 20260504184021 | 67 | 228 | 7.0 | 17.0 | 0.00 | 0.00 | 0.00 | 63 | 1007.7 |
| 20260504183516 | 68 | 219 | 6.0 | 17.0 | 0.00 | 0.00 | 0.00 | 64 | 1007.4 |
| 20260504183039 | 68 | 227 | 8.0 | 17.0 | 0.00 | 0.00 | 0.00 | 64 | 1007.6 |
| 20260504182521 | 67 | 185 | 6.0 | 16.0 | 0.00 | 0.00 | 0.00 | 65 | 1007.5 |
| 20260504182016 | 67 | 220 | 6.0 | 16.0 | 0.00 | 0.00 | 0.00 | 66 | 1007.4 |
| 20260504181540 | 66 | 204 | 5.0 | 13.0 | 0.00 | 0.00 | 0.00 | 67 | 1007.5 |
| 20260504181020 | 66 | 244 | 4.0 | 19.0 | 0.00 | 0.00 | 0.00 | 68 | 1007.4 |
| 20260504180520 | 65 | 200 | 4.0 | 19.0 | 0.00 | 0.00 | 0.00 | 69 | 1007.4 |
| 20260504180040 | 65 | 227 | 7.0 | 19.0 | 0.00 | 0.00 | 0.00 | 69 | 1007.2 |
| 20260504175517 | 65 | 227 | 3.0 | 12.0 | 0.00 | 0.00 | 0.00 | 69 | 1007.3 |
| 20260504175017 | 65 | 183 | 7.0 | 12.0 | 0.00 | 0.00 | 0.00 | 69 | 1007.2 |
| 20260504174539 | 65 | 155 | 4.0 | 10.0 | 0.00 | 0.00 | 0.00 | 75 | 1007.4 |
| 20260504174017 | 66 | 252 | 4.0 | 11.0 | 0.00 | 0.00 | 0.00 | 68 | 1007.3 |
| 20260504173520 | 66 | 232 | 6.0 | 18.0 | 0.00 | 0.00 | 0.00 | 65 | 1007.7 |
| 20260504173032 | 67 | 210 | 5.0 | 18.0 | 0.00 | 0.00 | 0.00 | 62 | 1007.4 |
| 20260504172517 | 68 | 199 | 8.0 | 18.0 | 0.00 | 0.00 | 0.00 | 61 | 1007.4 |
| 20260504172020 | 68 | 211 | 6.0 | 19.0 | 0.00 | 0.00 | 0.00 | 62 | 1007.8 |
| 20260504171541 | 68 | 211 | 8.0 | 19.0 | 0.00 | 0.00 | 0.00 | 60 | 1007.8 |
| 20260504171020 | 68 | 231 | 7.0 | 19.0 | 0.00 | 0.00 | 0.00 | 60 | 1007.6 |
| 20260504170518 | 69 | 227 | 5.0 | 12.0 | 0.00 | 0.00 | 0.00 | 60 | 1007.4 |
| 20260504151023 | 66 | 227 | 4.0 | 11.0 | 0.00 | 0.00 | 0.00 | 61 | 1008.1 |
| 20260504150519 | 66 | 223 | 4.0 | 10.0 | 0.00 | 0.00 | 0.00 | 61 | 1008.0 |
| 20260504141022 | 62 | 222 | 4.0 | 9.0 | 0.00 | 0.00 | 0.00 | 66 | 1008.3 |
| 20260504140521 | 62 | 215 | 3.0 | 10.0 | 0.00 | 0.00 | 0.00 | 67 | 1008.2 |
| 20260504130521 | 58 | 154 | 6.0 | 13.0 | 0.00 | 0.00 | 0.00 | 69 | 1008.1 |
| 20260504110519 | 54 | 183 | 3.0 | 9.0 | 0.00 | 0.00 | 0.00 | 67 | 1008.2 |
| 20260504100517 | 54 | 223 | 4.0 | 13.0 | 0.00 | 0.00 | 0.00 | 65 | 1008.4 |
| 20260504081542 | 52 | 182 | 3.0 | 7.0 | 0.00 | 0.00 | 0.00 | 65 | 1009.2 |
| 20260504081019 | 52 | 173 | 2.0 | 7.0 | 0.00 | 0.00 | 0.00 | 65 | 1009.2 |
| 20260504080522 | 53 | 128 | 2.0 | 7.0 | 0.00 | 0.00 | 0.00 | 64 | 1009.1 |
| 20260504050522 | 55 | 140 | 5.0 | 11.0 | 0.00 | 0.00 | 0.00 | 59 | 1011.0 |
| 20260504045522 | 55 | 175 | 5.0 | 11.0 | 0.00 | 0.00 | 0.00 | 59 | 1011.1 |
| 20260504045021 | 55 | 139 | 4.0 | 10.0 | 0.00 | 0.00 | 0.00 | 59 | 1011.0 |
| 20260504044542 | 55 | 184 | 5.0 | 10.0 | 0.00 | 0.00 | 0.00 | 59 | 1010.9 |
| 20260504044020 | 55 | 207 | 5.0 | 12.0 | 0.00 | 0.00 | 0.00 | 59 | 1011.1 |
| 20260504043520 | 55 | 182 | 5.0 | 12.0 | 0.00 | 0.00 | 0.00 | 59 | 1011.1 |
| 20260504043042 | 55 | 163 | 4.0 | 11.0 | 0.00 | 0.00 | 0.00 | 59 | 1011.1 |
| 20260504042520 | 55 | 186 | 4.0 | 12.0 | 0.00 | 0.00 | 0.00 | 58 | 1011.1 |
| 20260504042018 | 55 | 190 | 5.0 | 12.0 | 0.00 | 0.00 | 0.00 | 58 | 1011.2 |
| 20260504041541 | 55 | 186 | 4.0 | 12.0 | 0.00 | 0.00 | 0.00 | 58 | 1011.2 |
| 20260504041020 | 55 | 186 | 5.0 | 12.0 | 0.00 | 0.00 | 0.00 | 58 | 1011.2 |
| 20260504040522 | 55 | 194 | 4.0 | 10.0 | 0.00 | 0.00 | 0.00 | 59 | 1011.4 |
| 20260504040047 | 55 | 188 | 4.0 | 11.0 | 0.00 | 0.00 | 0.00 | 59 | 1011.4 |
| 20260504035521 | 55 | 172 | 4.0 | 11.0 | 0.00 | 0.00 | 0.00 | 59 | 1011.4 |
| 20260504035021 | 55 | 194 | 4.0 | 9.0 | 0.00 | 0.00 | 0.00 | 59 | 1011.4 |
| 20260504034546 | 55 | 179 | 4.0 | 9.0 | 0.00 | 0.00 | 0.00 | 59 | 1011.5 |
| 20260504034021 | 55 | 211 | 4.0 | 11.0 | 0.00 | 0.00 | 0.00 | 59 | 1011.6 |
| 20260504033525 | 55 | 168 | 3.0 | 11.0 | 0.00 | 0.00 | 0.00 | 59 | 1011.6 |
| 20260504033036 | 55 | 198 | 4.0 | 11.0 | 0.00 | 0.00 | 0.00 | 59 | 1011.6 |
| 20260504032520 | 55 | 196 | 4.0 | 11.0 | 0.00 | 0.00 | 0.00 | 59 | 1011.7 |
| 20260504032020 | 55 | 201 | 4.0 | 11.0 | 0.00 | 0.00 | 0.00 | 60 | 1011.7 |
| 20260504031536 | 55 | 198 | 4.0 | 10.0 | 0.00 | 0.00 | 0.00 | 60 | 1011.7 |
| 20260504031021 | 55 | 198 | 4.0 | 10.0 | 0.00 | 0.00 | 0.00 | 60 | 1011.7 |
| 20260504030520 | 55 | 153 | 4.0 | 9.0 | 0.00 | 0.00 | 0.00 | 60 | 1011.7 |
| 20260504030043 | 55 | 186 | 3.0 | 10.0 | 0.00 | 0.00 | 0.00 | 60 | 1011.7 |
| 20260504025522 | 55 | 186 | 5.0 | 10.0 | 0.00 | 0.00 | 0.00 | 60 | 1011.7 |
| 20260504025022 | 55 | 211 | 4.0 | 11.0 | 0.00 | 0.00 | 0.00 | 60 | 1011.7 |
| 20260504024542 | 55 | 164 | 4.0 | 11.0 | 0.00 | 0.00 | 0.00 | 60 | 1011.7 |
| 20260504024024 | 55 | 186 | 2.0 | 10.0 | 0.00 | 0.00 | 0.00 | 60 | 1011.7 |
| 20260504023521 | 55 | 144 | 3.0 | 9.0 | 0.00 | 0.00 | 0.00 | 60 | 1011.8 |
| 20260504023040 | 55 | 184 | 3.0 | 9.0 | 0.00 | 0.00 | 0.00 | 60 | 1011.8 |
| 20260504022521 | 55 | 178 | 4.0 | 7.0 | 0.00 | 0.00 | 0.00 | 60 | 1011.7 |
| 20260504022023 | 55 | 186 | 3.0 | 7.0 | 0.00 | 0.00 | 0.00 | 60 | 1011.7 |
| 20260504021536 | 55 | 158 | 2.0 | 8.0 | 0.00 | 0.00 | 0.00 | 60 | 1011.8 |
| 20260504021020 | 55 | 178 | 3.0 | 9.0 | 0.00 | 0.00 | 0.00 | 60 | 1011.8 |
| 20260504020520 | 55 | 174 | 3.0 | 10.0 | 0.00 | 0.00 | 0.00 | 59 | 1011.8 |
| 20260504020040 | 55 | 179 | 4.0 | 10.0 | 0.00 | 0.00 | 0.00 | 59 | 1011.8 |
| 20260504015521 | 56 | 179 | 3.0 | 8.0 | 0.00 | 0.00 | 0.00 | 58 | 1011.7 |
| 20260504015022 | 56 | 186 | 4.0 | 9.0 | 0.00 | 0.00 | 0.00 | 57 | 1011.7 |
| 20260504014558 | 56 | 164 | 5.0 | 9.0 | 0.00 | 0.00 | 0.00 | 57 | 1011.7 |
| 20260504014024 | 56 | 183 | 3.0 | 8.0 | 0.00 | 0.00 | 0.00 | 56 | 1011.7 |
| 20260504013525 | 57 | 202 | 4.0 | 11.0 | 0.00 | 0.00 | 0.00 | 56 | 1011.7 |
| 20260504013045 | 57 | 198 | 4.0 | 11.0 | 0.00 | 0.00 | 0.00 | 56 | 1011.7 |
| 20260504012522 | 57 | 199 | 5.0 | 11.0 | 0.00 | 0.00 | 0.00 | 55 | 1011.7 |
| 20260504012021 | 57 | 189 | 4.0 | 11.0 | 0.00 | 0.00 | 0.00 | 55 | 1011.7 |
| 20260504011536 | 57 | 221 | 4.0 | 9.0 | 0.00 | 0.00 | 0.00 | 55 | 1011.7 |
| 20260504011019 | 57 | 181 | 3.0 | 9.0 | 0.00 | 0.00 | 0.00 | 55 | 1011.7 |
| 20260504010519 | 57 | 171 | 3.0 | 12.0 | 0.00 | 0.00 | 0.00 | 55 | 1011.7 |
| 20260504010037 | 57 | 173 | 3.0 | 12.0 | 0.00 | 0.00 | 0.00 | 54 | 1011.7 |
| 20260504005523 | 57 | 189 | 5.0 | 10.0 | 0.00 | 0.00 | 0.00 | 54 | 1011.7 |
| 20260504005021 | 57 | 184 | 5.0 | 14.0 | 0.00 | 0.00 | 0.00 | 53 | 1011.7 |
| 20260504004543 | 57 | 174 | 4.0 | 14.0 | 0.00 | 0.00 | 0.00 | 53 | 1011.7 |
| 20260504004019 | 57 | 209 | 3.0 | 9.0 | 0.00 | 0.00 | 0.00 | 53 | 1011.7 |
| 20260504003521 | 58 | 278 | 4.0 | 15.0 | 0.00 | 0.00 | 0.00 | 52 | 1011.6 |
| 20260504003038 | 58 | 194 | 3.0 | 15.0 | 0.00 | 0.00 | 0.00 | 52 | 1011.6 |
| 20260504002517 | 58 | 202 | 6.0 | 14.0 | 0.00 | 0.00 | 0.00 | 51 | 1011.6 |
| 20260504002017 | 58 | 198 | 3.0 | 10.0 | 0.00 | 0.00 | 0.00 | 50 | 1011.6 |
| 20260504001543 | 58 | 205 | 4.0 | 10.0 | 0.00 | 0.00 | 0.00 | 50 | 1011.7 |
| 20260504001020 | 58 | 215 | 4.0 | 10.0 | 0.00 | 0.00 | 0.00 | 50 | 1011.5 |
| 20260504000520 | 58 | 190 | 3.0 | 9.0 | 0.00 | 0.00 | 0.00 | 49 | 1011.6 |
| 20260504000037 | 58 | 193 | 4.0 | 10.0 | 0.00 | 0.00 | 0.00 | 49 | 1011.6 |
| 20260503235519 | 58 | 227 | 3.0 | 10.0 | 0.00 | 0.00 | 0.00 | 49 | 1011.7 |
| 20260503235019 | 58 | 203 | 4.0 | 10.0 | 0.00 | 0.00 | 0.00 | 49 | 1011.7 |
| 20260503234545 | 59 | 227 | 3.0 | 11.0 | 0.00 | 0.00 | 0.00 | 48 | 1011.7 |
| 20260503234019 | 59 | 157 | 4.0 | 14.0 | 0.00 | 0.00 | 0.00 | 48 | 1011.6 |
| 20260503233517 | 59 | 204 | 4.0 | 15.0 | 0.00 | 0.00 | 0.00 | 47 | 1011.6 |
| 20260503233041 | 59 | 221 | 6.0 | 19.0 | 0.00 | 0.00 | 0.00 | 48 | 1011.8 |
| 20260503232519 | 59 | 186 | 5.0 | 19.0 | 0.00 | 0.00 | 0.00 | 47 | 1011.8 |
| 20260503232017 | 59 | 250 | 5.0 | 16.0 | 0.00 | 0.00 | 0.00 | 46 | 1011.7 |